TimePST,TemperatureF,Dew PointF,Humidity,Sea Level PressureIn,VisibilityMPH,Wind Direction,Wind SpeedMPH,Gust SpeedMPH,PrecipitationIn,Events,Conditions,WindDirDegrees,DateUTC
12:56 AM,37.9,34.0,86,30.35,10.0,Calm,Calm,-,N/A,,Clear,0,2013-02-13 08:56:00
1:56 AM,37.9,34.0,86,30.35,10.0,Calm,Calm,-,N/A,,Clear,0,2013-02-13 09:56:00
2:56 AM,34.0,32.0,92,30.35,10.0,Calm,Calm,-,N/A,,Clear,0,2013-02-13 10:56:00
3:56 AM,35.1,32.0,89,30.33,10.0,Calm,Calm,-,N/A,,Clear,0,2013-02-13 11:56:00
4:56 AM,35.1,32.0,89,30.34,10.0,Calm,Calm,-,N/A,,Clear,0,2013-02-13 12:56:00
5:56 AM,34.0,32.0,92,30.35,10.0,Calm,Calm,-,N/A,,Clear,0,2013-02-13 13:56:00
6:56 AM,33.1,30.9,92,30.35,10.0,Calm,Calm,-,N/A,,Clear,0,2013-02-13 14:56:00
7:56 AM,35.1,33.1,92,30.36,10.0,NNW,3.5,-,N/A,,Clear,330,2013-02-13 15:56:00
8:56 AM,41.0,36.0,82,30.37,10.0,Calm,Calm,-,N/A,,Clear,0,2013-02-13 16:56:00
9:56 AM,46.9,39.0,74,30.35,10.0,Calm,Calm,-,N/A,,Clear,0,2013-02-13 17:56:00
10:56 AM,53.1,37.9,57,30.35,10.0,Calm,Calm,-,N/A,,Clear,0,2013-02-13 18:56:00
11:56 AM,55.9,37.0,49,30.32,10.0,Calm,Calm,-,N/A,,Clear,0,2013-02-13 19:56:00
12:56 PM,61.0,37.9,42,30.28,10.0,Calm,Calm,-,N/A,,Clear,0,2013-02-13 20:56:00
1:56 PM,66.0,39.9,38,30.25,10.0,Calm,Calm,-,N/A,,Clear,0,2013-02-13 21:56:00
2:56 PM,66.9,41.0,39,30.23,10.0,Calm,Calm,-,N/A,,Clear,0,2013-02-13 22:56:00
3:56 PM,69.1,41.0,36,30.21,10.0,Calm,Calm,-,N/A,,Clear,0,2013-02-13 23:56:00
4:56 PM,62.1,44.1,52,30.20,10.0,WNW,3.5,-,N/A,,Clear,290,2013-02-14 00:56:00
5:56 PM,57.9,43.0,58,30.20,10.0,Calm,Calm,-,N/A,,Clear,0,2013-02-14 01:56:00
6:56 PM,54.0,43.0,66,30.22,9.0,Calm,Calm,-,N/A,,Clear,0,2013-02-14 02:56:00
7:56 PM,51.1,43.0,74,30.23,10.0,Calm,Calm,-,N/A,,Clear,0,2013-02-14 03:56:00
8:56 PM,48.0,42.1,80,30.24,10.0,Calm,Calm,-,N/A,,Clear,0,2013-02-14 04:56:00
9:56 PM,45.0,41.0,86,30.25,10.0,South,3.5,-,N/A,,Clear,180,2013-02-14 05:56:00
10:56 PM,45.0,41.0,86,30.25,10.0,Calm,Calm,-,N/A,,Clear,0,2013-02-14 06:56:00
11:56 PM,44.1,39.9,85,30.25,10.0,Calm,Calm,-,N/A,,Clear,0,2013-02-14 07:56:00